User: anonymous   Login
Location: Unspecified
(0.0000°N, 0.0000°E)
Time: 18:57:34
(UTC+00:00)
Language:

METEOR-M - Orbit

View from above orbital plane
View from above orbital plane
View from above satellite
View from above satellite

Ground track
Ground track

The orbit data is extracted from the following two-line orbital elements,

1 35865U 09049A   15245.55861758  .00000028  00000-0  31622-4 0  9999
2 35865  98.4943 283.1065 0001417 233.2447 243.7836 14.22046687309206
Epoch (UTC): 02 September 2015 13:24:24
Eccentricity: 0.0001417
inclination: 98.4943°
perigee height: 817 km
apogee height: 819 km
right ascension of ascending node: 283.1065°
argument of perigee: 233.2447°
revolutions per day: 14.22046687
mean anomaly at epoch: 243.7836°
orbit number at epoch: 30920

The dashed part of the orbit path shows where the satellite is in the earth's shadow,  

DLR